Torna al catalogo

STARLINK-32383

AttivoComunicazioniVLEO
NORAD 61891·PAYLOAD·🇺🇸 United States

Lanciato Nov 9, 2024 da Vandenberg Space Force Base

Loading…

Prossimi Passaggi (prossime 24 ore)

TLE

AggiornatoSource: CelesTrak SupGP

Epoca: Sep 14, 2026, 20:43 UTC

1 61891C 24204T   26257.86368056 -.00020951  00000+0 -61913-3 0  2579
2 61891  53.1584 324.2865 0001194  81.5645 102.0934 15.34394003    19

Traccia STARLINK-32383 in tempo reale con AllMySat

Download on the App Store